| time (UTC) | temp F | wind direction | speed MPH | gust MPH | rain 1hr in | rain 24hr in | rain mn in | humidity % | barometer mb |
| 20260905182004 | 85 | 86 | 2.0 | 3.0 | 0.00 | 0.00 | 0.00 | 53 | 1020.0 |
| 20260905181023 | 85 | 99 | 2.0 | 3.0 | 0.00 | 0.00 | 0.00 | 52 | 1019.9 |
| 20260905180005 | 86 | 93 | 3.0 | 4.0 | 0.00 | 0.00 | 0.00 | 53 | 1019.9 |
| 20260905175005 | 86 | 88 | 3.0 | 5.0 | 0.00 | 0.00 | 0.00 | 52 | 1019.9 |
| 20260905174006 | 86 | 104 | 4.0 | 6.0 | 0.00 | 0.00 | 0.00 | 52 | 1019.8 |
| 20260905173008 | 86 | 97 | 4.0 | 7.0 | 0.00 | 0.00 | 0.00 | 53 | 1019.8 |
| 20260905172004 | 87 | 107 | 4.0 | 7.0 | 0.00 | 0.00 | 0.00 | 54 | 1019.8 |
| 20260905171004 | 88 | 84 | 6.0 | 9.0 | 0.00 | 0.00 | 0.00 | 52 | 1019.6 |
| 20260905170004 | 89 | 111 | 4.0 | 7.0 | 0.00 | 0.00 | 0.00 | 53 | 1019.6 |
| 20260905165004 | 89 | 89 | 5.0 | 7.0 | 0.00 | 0.00 | 0.00 | 53 | 1019.7 |
| 20260905164005 | 88 | 136 | 6.0 | 10.0 | 0.00 | 0.00 | 0.00 | 54 | 1019.5 |
| 20260905163005 | 88 | 111 | 7.0 | 10.0 | 0.00 | 0.00 | 0.00 | 52 | 1019.5 |
| 20260905162004 | 89 | 102 | 7.0 | 11.0 | 0.00 | 0.00 | 0.00 | 51 | 1019.5 |
| 20260905160004 | 89 | 123 | 8.0 | 13.0 | 0.00 | 0.00 | 0.00 | 53 | 1019.4 |
| 20260905155003 | 90 | 129 | 7.0 | 11.0 | 0.00 | 0.00 | 0.00 | 51 | 1019.5 |
| 20260905154005 | 89 | 125 | 8.0 | 14.0 | 0.00 | 0.00 | 0.00 | 50 | 1019.5 |
| 20260905153004 | 89 | 134 | 10.0 | 15.0 | 0.00 | 0.00 | 0.00 | 48 | 1019.5 |
| 20260905152004 | 90 | 129 | 10.0 | 15.0 | 0.00 | 0.00 | 0.00 | 46 | 1019.5 |
| 20260905150005 | 90 | 120 | 9.0 | 15.0 | 0.00 | 0.00 | 0.00 | 44 | 1019.6 |
| 20260905145004 | 92 | 112 | 7.0 | 11.0 | 0.00 | 0.00 | 0.00 | 44 | 1019.6 |
| 20260905144004 | 92 | 92 | 7.0 | 11.0 | 0.00 | 0.00 | 0.00 | 45 | 1019.6 |
| 20260905143005 | 92 | 101 | 7.0 | 13.0 | 0.00 | 0.00 | 0.00 | 45 | 1019.7 |
| 20260905142004 | 93 | 79 | 8.0 | 13.0 | 0.00 | 0.00 | 0.00 | 46 | 1019.7 |
| 20260905141004 | 92 | 98 | 8.0 | 13.0 | 0.00 | 0.00 | 0.00 | 44 | 1019.8 |
| 20260905140005 | 92 | 93 | 8.0 | 13.0 | 0.00 | 0.00 | 0.00 | 44 | 1019.9 |
| 20260905135004 | 94 | 88 | 8.0 | 12.0 | 0.00 | 0.00 | 0.00 | 42 | 1020.0 |
| 20260905134005 | 94 | 89 | 8.0 | 13.0 | 0.00 | 0.00 | 0.00 | 42 | 1020.1 |
| 20260905133006 | 94 | 82 | 8.0 | 12.0 | 0.00 | 0.00 | 0.00 | 43 | 1020.2 |
| 20260905132004 | 94 | 68 | 7.0 | 12.0 | 0.00 | 0.00 | 0.00 | 43 | 1020.2 |
| 20260905131004 | 93 | 103 | 7.0 | 11.0 | 0.00 | 0.00 | 0.00 | 49 | 1020.2 |
| 20260905130005 | 91 | 119 | 8.0 | 12.0 | 0.00 | 0.00 | 0.00 | 53 | 1020.3 |
| 20260905124004 | 91 | 105 | 6.0 | 11.0 | 0.00 | 0.00 | 0.00 | 51 | 1020.4 |
| 20260905122005 | 90 | 115 | 7.0 | 12.0 | 0.00 | 0.00 | 0.00 | 54 | 1020.6 |
| 20260905121005 | 91 | 104 | 8.0 | 13.0 | 0.00 | 0.00 | 0.00 | 54 | 1020.5 |
| 20260905120006 | 91 | 119 | 9.0 | 13.0 | 0.00 | 0.00 | 0.00 | 53 | 1020.5 |
| 20260905115004 | 91 | 118 | 8.0 | 12.0 | 0.00 | 0.00 | 0.00 | 50 | 1020.5 |
| 20260905114005 | 92 | 114 | 8.0 | 12.0 | 0.00 | 0.00 | 0.00 | 47 | 1020.5 |
| 20260905113006 | 93 | 112 | 8.0 | 13.0 | 0.00 | 0.00 | 0.00 | 49 | 1020.4 |
| 20260905112004 | 92 | 117 | 7.0 | 11.0 | 0.00 | 0.00 | 0.00 | 51 | 1020.4 |
| 20260905111004 | 93 | 124 | 6.0 | 10.0 | 0.00 | 0.00 | 0.00 | 53 | 1020.4 |
| 20260905110005 | 93 | 121 | 6.0 | 10.0 | 0.00 | 0.00 | 0.00 | 53 | 1020.4 |
| 20260905105004 | 93 | 122 | 6.0 | 9.0 | 0.00 | 0.00 | 0.00 | 51 | 1020.3 |
| 20260905104005 | 94 | 116 | 4.0 | 8.0 | 0.00 | 0.00 | 0.00 | 44 | 1020.3 |
| 20260905103005 | 93 | 146 | 5.0 | 8.0 | 0.00 | 0.00 | 0.00 | 43 | 1020.4 |
| 20260905102005 | 94 | 141 | 3.0 | 5.0 | 0.00 | 0.00 | 0.00 | 42 | 1020.4 |
| 20260905101004 | 94 | 109 | 3.0 | 4.0 | 0.00 | 0.00 | 0.00 | 41 | 1020.4 |
| 20260905100006 | 94 | 253 | 2.0 | 4.0 | 0.00 | 0.00 | 0.00 | 41 | 1020.4 |
| 20260905094007 | 92 | 184 | 3.0 | 6.0 | 0.00 | 0.00 | 0.00 | 44 | 1020.3 |
| 20260905093005 | 92 | 223 | 2.0 | 4.0 | 0.00 | 0.00 | 0.00 | 45 | 1020.3 |
| 20260905092004 | 92 | 279 | 2.0 | 5.0 | 0.00 | 0.00 | 0.00 | 48 | 1020.2 |
| 20260905091004 | 89 | 254 | 4.0 | 6.0 | 0.00 | 0.00 | 0.00 | 51 | 1020.2 |
| 20260905090006 | 88 | 261 | 4.0 | 6.0 | 0.00 | 0.00 | 0.00 | 52 | 1020.1 |
| 20260905085004 | 88 | 260 | 4.0 | 7.0 | 0.00 | 0.00 | 0.00 | 55 | 1020.1 |
| 20260905082005 | 85 | 272 | 6.0 | 9.0 | 0.00 | 0.00 | 0.00 | 63 | 1020.0 |
| 20260905080005 | 83 | 298 | 6.0 | 9.0 | 0.00 | 0.00 | 0.00 | 67 | 1019.9 |
| 20260905075004 | 82 | 301 | 6.0 | 9.0 | 0.00 | 0.00 | 0.00 | 69 | 1020.0 |
| 20260905074005 | 81 | 292 | 5.0 | 8.0 | 0.00 | 0.00 | 0.00 | 68 | 1020.0 |
| 20260905073004 | 80 | 290 | 5.0 | 7.0 | 0.00 | 0.00 | 0.00 | 67 | 1020.0 |
| 20260905072004 | 79 | 292 | 5.0 | 8.0 | 0.00 | 0.00 | 0.00 | 68 | 1019.9 |
| 20260905071005 | 78 | 300 | 5.0 | 9.0 | 0.00 | 0.00 | 0.00 | 69 | 1019.8 |
| 20260905070006 | 78 | 277 | 4.0 | 7.0 | 0.00 | 0.00 | 0.00 | 71 | 1019.8 |
| 20260905065004 | 77 | 303 | 4.0 | 6.0 | 0.00 | 0.00 | 0.00 | 72 | 1019.7 |
| 20260905064007 | 77 | 296 | 3.0 | 4.0 | 0.00 | 0.00 | 0.00 | 73 | 1019.6 |
| 20260905063006 | 76 | 282 | 4.0 | 7.0 | 0.00 | 0.00 | 0.00 | 75 | 1019.7 |
| 20260905062004 | 76 | 291 | 3.0 | 5.0 | 0.00 | 0.00 | 0.00 | 76 | 1019.8 |
| 20260905061006 | 75 | 294 | 4.0 | 6.0 | 0.00 | 0.00 | 0.00 | 76 | 1019.7 |
| 20260905060004 | 75 | 291 | 4.0 | 6.0 | 0.00 | 0.00 | 0.00 | 75 | 1019.7 |
| 20260905055006 | 75 | 297 | 3.0 | 5.0 | 0.00 | 0.00 | 0.00 | 76 | 1019.7 |
| 20260905054005 | 75 | 287 | 2.0 | 4.0 | 0.00 | 0.00 | 0.00 | 76 | 1019.7 |
| 20260905053004 | 75 | 313 | 1.0 | 3.0 | 0.00 | 0.00 | 0.00 | 76 | 1019.5 |
| 20260905051004 | 75 | 275 | 1.0 | 2.0 | 0.00 | 0.00 | 0.00 | 77 | 1019.5 |
| 20260905050006 | 75 | 270 | 2.0 | 3.0 | 0.00 | 0.00 | 0.00 | 77 | 1019.4 |
| 20260905045004 | 75 | 269 | 2.0 | 3.0 | 0.00 | 0.00 | 0.00 | 76 | 1019.4 |
| 20260905044006 | 75 | 273 | 1.0 | 2.0 | 0.00 | 0.00 | 0.00 | 77 | 1019.3 |
| 20260905042034 | 75 | 259 | 2.0 | 4.0 | 0.00 | 0.00 | 0.00 | 76 | 1019.3 |
| 20260905041006 | 76 | 269 | 2.0 | 3.0 | 0.00 | 0.00 | 0.00 | 76 | 1019.3 |
| 20260905040006 | 76 | 270 | 2.0 | 3.0 | 0.00 | 0.00 | 0.00 | 76 | 1019.3 |
| 20260905035005 | 76 | 275 | 2.0 | 3.0 | 0.00 | 0.00 | 0.00 | 76 | 1019.3 |
| 20260905033006 | 76 | 267 | 3.0 | 5.0 | 0.00 | 0.00 | 0.00 | 78 | 1019.2 |
| 20260905032006 | 76 | 265 | 2.0 | 3.0 | 0.00 | 0.00 | 0.00 | 79 | 1019.1 |
| 20260905031004 | 76 | 271 | 2.0 | 3.0 | 0.00 | 0.00 | 0.00 | 80 | 1019.2 |
| 20260905030007 | 76 | 270 | 1.0 | 1.0 | 0.00 | 0.00 | 0.00 | 81 | 1019.1 |
| 20260905025004 | 77 | 270 | 0.0 | 1.0 | 0.00 | 0.00 | 0.00 | 81 | 1019.0 |
| 20260905024004 | 77 | 270 | 0.0 | 1.0 | 0.00 | 0.00 | 0.00 | 80 | 1019.0 |
| 20260905022011 | 77 | 270 | 0.0 | 1.0 | 0.00 | 0.00 | 0.00 | 80 | 1019.0 |
| 20260905020006 | 77 | 283 | 1.0 | 2.0 | 0.00 | 0.00 | 0.00 | 80 | 1018.8 |
| 20260905015004 | 77 | 270 | 2.0 | 4.0 | 0.00 | 0.00 | 0.00 | 81 | 1018.9 |
| 20260905012004 | 78 | 22 | 2.0 | 3.0 | 0.00 | 0.00 | 0.00 | 82 | 1019.0 |
| 20260905011004 | 78 | 355 | 2.0 | 3.0 | 0.00 | 0.00 | 0.00 | 82 | 1019.0 |
| 20260905005004 | 77 | 260 | 3.0 | 4.0 | 0.00 | 0.00 | 0.00 | 82 | 1019.1 |
| 20260905004005 | 79 | 190 | 0.0 | 1.0 | 0.00 | 0.00 | 0.00 | 79 | 1019.0 |
| 20260905003026 | 78 | 84 | 1.0 | 2.0 | 0.00 | 0.00 | 0.00 | 81 | 1018.9 |
| 20260905002004 | 79 | 207 | 0.0 | 1.0 | 0.00 | 0.00 | 0.00 | 80 | 1018.9 |
| 20260905001004 | 79 | 275 | 2.0 | 2.0 | 0.00 | 0.00 | 0.00 | 82 | 1019.0 |
| 20260905000008 | 79 | 265 | 2.0 | 3.0 | 0.00 | 0.00 | 0.00 | 82 | 1019.0 |
| 20260904235004 | 79 | 266 | 2.0 | 3.0 | 0.00 | 0.00 | 0.00 | 81 | 1019.1 |
| 20260904234005 | 80 | 260 | 2.0 | 4.0 | 0.00 | 0.00 | 0.00 | 81 | 1019.1 |
| 20260904232004 | 80 | 339 | 1.0 | 3.0 | 0.00 | 0.00 | 0.00 | 81 | 1019.2 |
| 20260904231004 | 80 | 13 | 2.0 | 4.0 | 0.00 | 0.00 | 0.00 | 81 | 1019.2 |
| 20260904230007 | 80 | 347 | 3.0 | 5.0 | 0.00 | 0.00 | 0.00 | 81 | 1019.1 |
| 20260904225004 | 81 | 338 | 3.0 | 5.0 | 0.00 | 0.00 | 0.00 | 81 | 1019.0 |
| 20260904223007 | 81 | 334 | 3.0 | 4.0 | 0.00 | 0.00 | 0.00 | 81 | 1018.9 |
| 20260904222008 | 81 | 351 | 2.0 | 4.0 | 0.00 | 0.00 | 0.00 | 81 | 1018.8 |
| 20260904221004 | 81 | 356 | 1.0 | 2.0 | 0.00 | 0.00 | 0.00 | 80 | 1018.8 |
| 20260904220007 | 81 | 8 | 2.0 | 4.0 | 0.00 | 0.00 | 0.00 | 80 | 1018.9 |
| 20260904215004 | 81 | 18 | 2.0 | 3.0 | 0.00 | 0.00 | 0.00 | 80 | 1018.9 |
| 20260904214006 | 81 | 53 | 3.0 | 5.0 | 0.00 | 0.00 | 0.00 | 80 | 1018.9 |
| 20260904212004 | 81 | 25 | 3.0 | 5.0 | 0.00 | 0.00 | 0.00 | 78 | 1018.9 |
| 20260904211004 | 82 | 34 | 3.0 | 4.0 | 0.00 | 0.00 | 0.00 | 78 | 1018.9 |
| 20260904210008 | 82 | 45 | 4.0 | 6.0 | 0.00 | 0.00 | 0.00 | 77 | 1019.0 |
| 20260904205007 | 82 | 10 | 4.0 | 7.0 | 0.00 | 0.00 | 0.00 | 76 | 1019.0 |
| 20260904204011 | 82 | 18 | 3.0 | 6.0 | 0.00 | 0.00 | 0.00 | 76 | 1018.9 |
| 20260904202005 | 82 | 27 | 4.0 | 6.0 | 0.00 | 0.00 | 0.00 | 75 | 1018.8 |
| 20260904201006 | 82 | 42 | 4.0 | 6.0 | 0.00 | 0.00 | 0.00 | 73 | 1018.7 |
| 20260904195004 | 83 | 19 | 3.0 | 5.0 | 0.00 | 0.00 | 0.00 | 71 | 1018.6 |
| 20260904194005 | 83 | 20 | 3.0 | 5.0 | 0.00 | 0.00 | 0.00 | 71 | 1018.4 |
| 20260904193005 | 83 | 32 | 4.0 | 6.0 | 0.00 | 0.00 | 0.00 | 71 | 1018.2 |
| 20260904191004 | 83 | 21 | 5.0 | 8.0 | 0.00 | 0.00 | 0.00 | 70 | 1018.2 |
| 20260904190006 | 83 | 31 | 4.0 | 7.0 | 0.00 | 0.00 | 0.00 | 70 | 1018.0 |
| 20260904185004 | 83 | 47 | 4.0 | 7.0 | 0.00 | 0.00 | 0.00 | 70 | 1017.9 |
| 20260904184006 | 84 | 42 | 4.0 | 6.0 | 0.00 | 0.00 | 0.00 | 70 | 1017.8 |
| 20260904183006 | 84 | 28 | 4.0 | 7.0 | 0.00 | 0.00 | 0.00 | 70 | 1017.7 |